Change the Weather History Date:

Friday, September 6, 2013

  Actual Average (KACT) Record (KACT)
Temperature  
Mean Temperature 87 °F 81 °F  
Max Temperature 99 °F 93 °F 104 °F (1990)
Min Temperature 75 °F 70 °F 53 °F (1997)
Degree Days  
Heating Degree Days 0 0  
Month to date heating degree days 0  
Since 1 July heating degree days 0  
Cooling Degree Days 22 16  
Month to date cooling degree days 102  
Year to date cooling degree days 2297  
Growing Degree Days 37 (Base 50)    
Moisture  
Dew Point 63 °F    
Average Humidity 47    
Maximum Humidity 74    
Minimum Humidity 25    
Precipitation  
Precipitation 0.00 in 0.10 in 2.15 in (1929)
Month to date precipitation 0.60  
Year to date precipitation 22.76  
Sea Level Pressure  
Sea Level Pressure 30.04 in    
Wind  
Wind Speed 5 mph (SE)    
Max Wind Speed 13 mph    
Max Gust Speed 17 mph    
Visibility 10 miles    
Events      
T = Trace of Precipitation, MM = Missing Value Source: NWS Daily Summary

Daily Weather History Graph

Daily Weather History Graph

Search for Another Location

Airport or City:

Trip Planner

Search our weather history database for the weather conditions in past years. The results will help you decide how hot, cold, wet, or windy it might be!

Date:

Astronomy

Sep. 06, 2013 Rise Set
Actual Time 7:06 AM CDT 7:45 PM CDT
Civil Twilight 6:42 AM CDT 8:10 PM CDT
Nautical Twilight 6:13 AM CDT 8:39 PM CDT
Astronomical Twilight 5:43 AM CDT 9:09 PM CDT
Moon 8:13 AM CDT (9/6) 8:19 PM CDT (9/6)
Length of Visible Light 13h 28m
Length of Day
12h 38m
New Moon, 2% of the Moon is Illuminated
Sep 6
New Moon
Sep 12
First Quarter
Sep 19
Full
Sep 26
Last Quarter
Oct 4
New

Hourly Weather History & Observations

Time (CDT) Temp. Heat Index Dew Point Humidity Pressure Visibility Wind Dir Wind Speed Gust Speed Precip Events Conditions
12:15 AM 85.1 °F 86.6 °F 64.8 °F 50% 30.07 in 10.0 mi South 9.2 mph - N/A   Clear
12:35 AM 84.4 °F 86.6 °F 65.8 °F 54% 30.07 in 10.0 mi South 10.4 mph - N/A   Clear
12:55 AM 83.8 °F 86.0 °F 66.2 °F 55% 30.07 in 10.0 mi South 6.9 mph - N/A   Clear
1:15 AM 83.3 °F 85.9 °F 66.9 °F 58% 30.07 in 10.0 mi SSW 8.1 mph - N/A   Clear
1:35 AM 82.6 °F 85.1 °F 66.9 °F 59% 30.07 in 10.0 mi SSW 4.6 mph - N/A   Clear
1:55 AM 81.9 °F 84.4 °F 67.1 °F 61% 30.06 in 10.0 mi SSW 4.6 mph - N/A   Clear
2:15 AM 81.5 °F 83.9 °F 67.1 °F 61% 30.06 in 10.0 mi South 3.5 mph - N/A   Clear
2:35 AM 80.8 °F 83.2 °F 66.9 °F 63% 30.06 in 10.0 mi South 3.5 mph - N/A   Clear
2:55 AM 80.6 °F 82.9 °F 67.1 °F 63% 30.06 in 10.0 mi South 3.5 mph - N/A   Clear
3:15 AM 79.5 °F - 66.4 °F 64% 30.06 in 10.0 mi South 3.5 mph - N/A   Scattered Clouds
3:35 AM 78.8 °F - 66.4 °F 66% 30.05 in 10.0 mi South 3.5 mph - N/A   Clear
3:55 AM 78.4 °F - 65.3 °F 64% 30.06 in 10.0 mi SSE 3.5 mph - N/A   Clear
4:15 AM 78.6 °F - 66.2 °F 66% 30.06 in 10.0 mi Calm Calm - N/A   Clear
4:35 AM 78.4 °F - 67.1 °F 68% 30.06 in 10.0 mi Calm Calm - N/A   Clear
4:55 AM 77.7 °F - 66.4 °F 68% 30.05 in 10.0 mi Calm Calm - N/A   Clear
5:15 AM 77.2 °F - 66.7 °F 70% 30.06 in 10.0 mi Calm Calm - N/A   Clear
5:35 AM 76.6 °F - 66.2 °F 70% 30.06 in 10.0 mi SSE 3.5 mph - N/A   Clear
5:55 AM 77.0 °F - 66.6 °F 70% 30.06 in 10.0 mi SSE 4.6 mph - N/A   Clear
6:15 AM 75.2 °F - 65.1 °F 71% 30.06 in 10.0 mi SE 3.5 mph - N/A   Clear
6:35 AM 75.2 °F - 65.8 °F 73% 30.07 in 10.0 mi SSE 4.6 mph - N/A   Clear
6:55 AM 76.6 °F - 67.5 °F 73% 30.08 in 10.0 mi SE 5.8 mph - N/A   Clear
7:15 AM 76.5 °F - 67.6 °F 74% 30.08 in 10.0 mi ESE 4.6 mph - N/A   Clear
7:35 AM 76.3 °F - 67.6 °F 74% 30.08 in 10.0 mi ESE 4.6 mph - N/A   Clear
7:55 AM 77.0 °F - 68.0 °F 74% 30.08 in 10.0 mi Calm Calm - N/A   Clear
8:15 AM 78.8 °F - 68.5 °F 71% 30.09 in 10.0 mi SSE 4.6 mph - N/A   Clear
8:35 AM 80.6 °F 83.6 °F 69.1 °F 68% 30.10 in 10.0 mi SE 4.6 mph - N/A   Clear
8:55 AM 81.5 °F 84.8 °F 69.1 °F 66% 30.10 in 10.0 mi Calm Calm - N/A   Clear
9:15 AM 82.8 °F 86.2 °F 69.1 °F 63% 30.11 in 10.0 mi Calm Calm - N/A   Clear
9:35 AM 83.8 °F 87.3 °F 68.7 °F 60% 30.11 in 10.0 mi Calm Calm - N/A   Clear
9:55 AM 85.5 °F 88.8 °F 68.4 °F 56% 30.11 in 10.0 mi Calm Calm - N/A   Clear
10:15 AM 87.3 °F 90.9 °F 68.2 °F 53% 30.11 in 10.0 mi Calm Calm - N/A   Clear
10:35 AM 88.3 °F 91.6 °F 67.3 °F 50% 30.11 in 10.0 mi Calm Calm - N/A   Clear
10:55 AM 90.5 °F 92.9 °F 65.8 °F 44% 30.11 in 10.0 mi Calm Calm - N/A   Clear
11:15 AM 91.6 °F 93.5 °F 65.1 °F 41% 30.11 in 10.0 mi South 5.8 mph - N/A   Clear
11:35 AM 93.0 °F 95.5 °F 65.7 °F 40% 30.10 in 10.0 mi SSE 5.8 mph - N/A   Clear
11:55 AM 93.4 °F 94.7 °F 63.9 °F 37% 30.10 in 10.0 mi Calm Calm - N/A   Clear
12:15 PM 92.7 °F 94.0 °F 63.7 °F 38% 30.09 in 10.0 mi East 3.5 mph - N/A   Scattered Clouds
12:35 PM 93.6 °F 94.2 °F 62.4 °F 35% 30.08 in 10.0 mi South 4.6 mph - N/A   Scattered Clouds
12:55 PM 95.2 °F 96.8 °F 63.1 °F 35% 30.07 in 10.0 mi Calm Calm - N/A   Clear
1:15 PM 93.7 °F 94.5 °F 62.4 °F 35% 30.06 in 10.0 mi South 6.9 mph - N/A   Clear
1:35 PM 96.8 °F 97.5 °F 61.7 °F 31% 30.05 in 10.0 mi East 5.8 mph - N/A   Clear
1:55 PM 97.7 °F 98.5 °F 61.3 °F 30% 30.04 in 10.0 mi SSE 5.8 mph - N/A   Scattered Clouds
2:15 PM 96.1 °F 96.0 °F 60.4 °F 30% 30.03 in 10.0 mi South 5.8 mph - N/A   Clear
2:35 PM 96.8 °F 96.7 °F 59.5 °F 29% 30.02 in 10.0 mi ESE 5.8 mph 16.1 mph N/A   Scattered Clouds
2:55 PM 95.9 °F 95.3 °F 58.6 °F 29% 30.01 in 10.0 mi NE 8.1 mph - N/A   Scattered Clouds
3:15 PM 98.8 °F 97.8 °F 57.4 °F 25% 30.00 in 10.0 mi ESE 12.7 mph - N/A   Scattered Clouds
3:35 PM 97.7 °F 96.3 °F 55.9 °F 25% 29.99 in 10.0 mi South 4.6 mph - N/A   Clear
3:55 PM 98.8 °F 97.8 °F 56.8 °F 25% 29.98 in 10.0 mi Calm Calm - N/A   Scattered Clouds
4:15 PM 99.7 °F 99.6 °F 58.6 °F 26% 29.97 in 10.0 mi SE 11.5 mph 17.3 mph N/A   Scattered Clouds
4:35 PM 99.0 °F 98.6 °F 58.5 °F 26% 29.97 in 10.0 mi South 8.1 mph - N/A   Scattered Clouds
4:55 PM 97.7 °F 97.1 °F 58.1 °F 27% 29.97 in 10.0 mi ESE 10.4 mph - N/A   Scattered Clouds
5:15 PM 96.1 °F 95.2 °F 57.6 °F 28% 29.96 in 10.0 mi East 11.5 mph - N/A   Scattered Clouds
5:35 PM 96.8 °F 95.8 °F 58.1 °F 27% 29.96 in 10.0 mi ESE 9.2 mph - N/A   Clear
5:55 PM 96.8 °F 95.8 °F 58.1 °F 27% 29.96 in 10.0 mi SE 6.9 mph - N/A   Scattered Clouds
6:15 PM 96.6 °F 95.6 °F 57.6 °F 27% 29.96 in 10.0 mi ESE 6.9 mph - N/A   Clear
6:35 PM 97.0 °F 95.7 °F 56.8 °F 26% 29.96 in 10.0 mi ESE 5.8 mph - N/A   Clear
6:55 PM 96.8 °F 95.8 °F 57.7 °F 27% 29.96 in 10.0 mi SSE 6.9 mph - N/A   Scattered Clouds
7:15 PM 95.9 °F 94.2 °F 56.3 °F 26% 29.95 in 10.0 mi ESE 4.6 mph - N/A   Clear
7:35 PM 94.8 °F 93.4 °F 57.0 °F 28% 29.96 in 10.0 mi East 8.1 mph - N/A   Scattered Clouds
7:55 PM 92.3 °F 91.3 °F 58.6 °F 32% 29.97 in 10.0 mi East 5.8 mph - N/A   Clear
8:15 PM 91.0 °F 90.2 °F 59.0 °F 34% 29.97 in 10.0 mi East 6.9 mph - N/A   Clear
8:35 PM 90.5 °F 89.5 °F 58.6 °F 34% 29.97 in 10.0 mi East 6.9 mph - N/A   Clear
8:55 PM 89.6 °F 88.6 °F 58.6 °F 35% 29.98 in 10.0 mi East 5.8 mph - N/A   Clear
9:15 PM 88.5 °F 87.8 °F 59.0 °F 37% 29.98 in 10.0 mi East 5.8 mph - N/A   Clear
9:35 PM 88.0 °F 87.4 °F 59.5 °F 38% 29.98 in 10.0 mi East 6.9 mph - N/A   Clear
9:55 PM 87.3 °F 87.0 °F 59.9 °F 40% 29.99 in 10.0 mi East 6.9 mph - N/A   Clear
10:15 PM 86.9 °F 86.5 °F 60.1 °F 40% 29.99 in 10.0 mi East 8.1 mph - N/A   Scattered Clouds
10:35 PM 86.5 °F 86.3 °F 60.4 °F 41% 29.99 in 10.0 mi East 8.1 mph - N/A   Clear
10:55 PM 86.9 °F 86.7 °F 60.4 °F 41% 29.99 in 10.0 mi East 6.9 mph - N/A   Clear
11:15 PM 87.4 °F 86.9 °F 59.7 °F 39% 29.99 in 10.0 mi SSE 11.5 mph - N/A   Scattered Clouds
11:35 PM 87.1 °F 87.8 °F 62.8 °F 44% 29.99 in 10.0 mi SSE 11.5 mph - N/A   Clear
11:55 PM 86.0 °F 87.1 °F 63.5 °F 47% 29.99 in 10.0 mi SSE 9.2 mph - N/A   Clear